Lid_Strength_Index
1 1 1 1 1 0 0 0 0 0 -0 0 0 0 0 0 -0 0 0 0 0 0 0 0 1 0 1 1 1 1 2 2 4 3 1 0 0 0 0 -1 -1 -1 -0
1 1 1 1 0 1 1 0 -0 0 -0 0 0 0 0 0 -0 0 0 0 1 0 0 0 1 0 1 0 1 2 2 2 3 3 2 2 1 0 0 0 -0 -1 -1
1 1 1 1 1 1 1 0 0 0 0 0 0 0 0 0 0 -0 0 0 0 0 0 0 0 0 1 1 1 2 2 2 2 3 3 1 1 0 1 0 0 -0 -1
2 2 1 1 1 1 1 0 0 0 0 0 0 0 0 0 0 0 0 0 -0 -0 -0 -0 -0 -0 0 0 1 1 1 2 2 3 3 3 2 1 1 2 2 1 1
3 3 2 1 1 1 1 1 0 0 0 0 0 0 -0 -0 0 -0 -0 -0 -0 -0 -0 -0 -0 0 1 1 0 1 1 2 2 3 3 3 3 3 3 2 2 2 1
4 4 3 3 2 1 1 1 1 1 0 0 0 0 0 0 4 4 2 0 0 0 1 0 -0 1 1 2 3 4 2 2 2 3 3 4 3 2 2 2 2 3 4
4 4 4 3 3 2 1 1 1 1 1 1 0 0 0 -0 5 5 4 -0 0 0 0 1 1 0 0 0 2 6 6 8 6 2 3 3 2 2 2 2 2 2 2
3 3 3 3 4 3 2 2 1 1 1 1 1 0 0 0 5 5 5 -0 -0 0 0 0 0 0 0 1 1 1 1 1 2 3 1 1 0 0 1 1 1 1 1
3 3 3 3 3 3 3 2 1 1 1 1 1 1 1 0 6 6 4 0 0 0 0 0 0 0 4 8 1 2 1 1 7 8 8 9 9 8 3 1 2 3 3
3 3 2 2 3 3 2 1 1 1 1 1 1 0 1 0 6 7 4 1 1 1 0 0 6 2 6 7 1 2 2 2 2 4 4 6 6 6 8 -0 1 2 3
4 3 2 2 2 2 2 1 1 1 1 1 1 1 0 1 0 7 7 1 2 2 1 1 1 7 9 9 8 1 2 2 4 1 1 2 1 1 1 -0 -0 0 2
7 7 5 3 2 2 2 1 1 1 2 2 2 2 1 0 4 6 7 8 4 1 1 1 1 8 10 8 6 8 11 7 1 2 2 2 2 1 1 0 -0 -1 -1
8 8 7 6 5 2 2 2 2 2 2 3 2 2 2 1 1 7 7 8 8 4 1 2 7 9 7 5 9 11 12 1 2 2 3 2 1 1 0 0 -0 -1 -1
9 9 8 8 7 5 4 3 3 3 2 2 2 2 2 2 2 1 1 2 7 5 4 2 3 6 7 5 5 9 1 1 2 2 2 1 1 1 1 1 1 1 1
10 10 9 8 8 7 6 4 3 1 2 2 2 2 2 2 2 3 3 1 1 2 2 1 2 2 2 2 2 4 2 1 2 2 2 2 2 1 2 1 1 1 2
12 11 10 8 8 8 7 6 7 6 6 7 6 3 1 5 6 7 7 8 9 8 2 2 2 2 3 3 3 3 2 3 2 1 1 2 2 2 2 1 1 1 2
11 11 10 9 8 9 8 7 7 7 7 7 8 7 7 5 8 9 9 9 10 8 2 2 2 2 3 3 2 2 3 2 1 1 2 1 1 1 2 2 2 2 2
9 10 9 9 7 7 7 6 5 5 5 3 7 7 9 8 8 9 9 8 4 7 2 2 2 2 2 3 2 2 2 2 2 1 1 1 1 2 2 2 2 2 2
6 7 5 5 5 5 4 4 4 3 3 3 2 7 6 8 9 9 9 2 2 2 2 2 2 2 2 2 2 2 2 2 2 1 1 1 1 1 2 2 2 6 4
5 8 6 4 4 4 3 3 3 3 3 3 3 3 2 5 5 5 4 3 2 2 2 2 1 2 2 2 2 1 2 2 1 1 1 1 1 1 2 2 2 2 2
5 5 7 5 5 5 5 4 4 3 4 4 3 3 7 2 2 2 2 2 2 2 1 2 2 2 1 1 1 1 1 1 1 1 1 1 1 2 2 1 2 1 2
4 4 4 5 4 4 3 2 3 2 2 3 3 3 11 3 2 2 2 1 1 1 1 1 2 2 1 1 1 1 1 1 1 1 1 1 1 1 1 1 1 2 2
3 3 3 3 3 4 2 2 2 2 3 2 2 3 4 3 2 2 1 1 1 1 1 2 1 1 0 0 0 0 1 1 1 0 1 1 1 1 1 2 2 2 3
5 4 3 2 2 2 2 3 3 5 3 3 3 3 4 4 2 2 2 2 1 2 2 2 1 1 0 0 -0 -0 -0 -0 -0 0 0 1 2 3 3 4 5 6 8
7 6 5 4 4 5 4 3 3 3 3 3 4 3 3 2 2 2 2 1 1 1 1 1 0 0 0 0 -0 -0 7 12 1 6 2 3 4 5 7 8 9 9 10
7 6 5 4 4 4 4 4 4 4 6 6 6 6 6 5 4 3 3 3 1 1 1 0 0 1 0 0 0 10 13 12 7 10 4 4 6 8 9 10 10 9 9